This demonstration page uses our WeatherBlox Daily Observations layout. Learn more.

Left ArrowRight Arrow

39.51506, -84.39828

Hourly Observations for October 22, 2018

Temp ( °F °C ) Dew Point ( °F °C ) Humidity (%) Winds ( mph kmh ) Pressure ( in mb ) Visibility ( mi km ) Precip ( " mm )
12:15 am 00:15 Clear 33 0.6 32 0.2 97 97 Calm 30.27 1025 10 16.0934 0 0
12:35 am 00:35 Clear 33 0.4 32 0.2 99 99 Calm 30.27 1025 10 16.0934 0 0
12:55 am 00:55 Clear 33 0.3 32 0.1 99 99 Calm 30.27 1025 10 16.0934 0 0
1:15 am 01:15 Clear 33 0.3 32 0 98 98 Calm 30.27 1025 10 16.0934 0 0
1:35 am 01:35 Clear with Mist and Fog 33 0.6 33 0.4 99 99 Calm 30.27 1025 5 8.0467 0 0
1:55 am 01:55 Mostly Cloudy with Fog 32 -0.2 31 -0.3 99 99 Calm 30.27 1025 0.5 0.80467 0 0
2:15 am 02:15 Mostly Cloudy with Mist and Fog 32 -0.2 31 -0.3 99 99 Calm 30.27 1025 1 1.60934 0 0
2:35 am 02:35 Mostly Cloudy with Mist and Fog 33 0.4 33 0.4 100 100 Calm 30.27 1025 1.25 2.011675 0 0
2:55 am 02:55 Clear 32 -0.2 31 -0.3 99 99 Calm 30.27 1025 10 16.0934 0 0
3:15 am 03:15 Mostly Cloudy with Mist and Fog 32 0 32 -0.1 99 99 Calm 30.27 1025 1 1.60934 0 0
3:35 am 03:35 Mostly Cloudy with Freezing Fog 30 -1 30 -1.2 99 99 Calm 30.27 1025 0.5 0.80467 0 0
3:55 am 03:55 Mostly Cloudy with Freezing Fog 31 -0.6 31 -0.7 99 99 Calm 30.27 1025 0.25 0.402335 0 0
4:15 am 04:15 Clear with Mist and Fog 31 -0.6 31 -0.8 99 99 Calm 30.27 1025 5 8.0467 0 0
4:35 am 04:35 Clear with Mist and Fog 31 -0.5 31 -0.6 99 99 Calm 30.27 1025 5 8.0467 0 0
4:55 am 04:55 Clear with Mist and Fog 30 -1 30 -1 100 100 SW 3 6 30.24 1024 7 11.26538 0 0
5:15 am 05:15 Clear 30 -1.3 29 -1.4 99 99 WSW 3 6 30.24 1024 10 16.0934 0 0
5:35 am 05:35 Clear 31 -0.4 31 -0.5 99 99 WSW 3 6 30.24 1024 10 16.0934 0 0
5:55 am 05:55 Clear 31 -0.4 31 -0.6 99 99 WSW 5 7 30.24 1024 10 16.0934 0 0
6:15 am 06:15 Clear 31 -0.8 30 -1 99 99 SW 3 6 30.24 1024 7 11.26538 0 0
6:35 am 06:35 Clear 31 -0.4 31 -0.6 99 99 SSW 5 7 30.24 1024 10 16.0934 0 0
6:55 am 06:55 Clear 31 -0.4 31 -0.7 98 98 SSW 3 6 30.24 1024 10 16.0934 0 0
7:15 am 07:15 Clear 31 -0.3 31 -0.7 97 97 S 3 6 30.24 1024 10 16.0934 0 0
7:35 am 07:35 Clear 32 0.2 31 -0.3 96 96 SSW 3 6 30.24 1024 10 16.0934 0 0
7:55 am 07:55 Clear 32 0 31 -0.6 96 96 S 3 6 30.24 1024 10 16.0934 0 0
8:15 am 08:15 Sunny 32 -0.1 31 -0.7 96 96 SSW 3 6 30.24 1024 10 16.0934 0 0
8:35 am 08:35 Sunny 33 0.6 32 0 96 96 SSW 3 6 30.24 1024 10 16.0934 0 0
8:55 am 08:55 Sunny 34 1.3 33 0.5 94 94 SSW 5 7 30.24 1024 10 16.0934 0 0
9:15 am 09:15 Sunny 37 2.8 35 1.5 91 91 S 3 6 30.24 1024 10 16.0934 0 0
9:35 am 09:35 Sunny 40 4.4 35 1.7 83 83 S 8 13 30.24 1024 10 16.0934 0 0
9:55 am 09:55 Sunny 42 5.7 34 1.2 73 73 SSW 10 17 30.21 1023 10 16.0934 0 0
10:15 am 10:15 Sunny 45 7.1 35 1.5 68 68 SSW 10 17 30.21 1023 10 16.0934 0 0
10:35 am 10:35 Sunny 47 8.1 34 1 61 61 SW 13 20 30.21 1023 10 16.0934 0 0
10:55 am 10:55 Sunny 49 9.3 34 1 56 56 SSW 14 22 30.21 1023 10 16.0934 0 0
11:15 am 11:15 Sunny 50 10 34 0.9 54 54 SSW 13 20 30.21 1023 10 16.0934 0 0
11:35 am 11:35 Sunny 52 11.1 34 1.1 50 50 SW 14 22 30.18 1022 10 16.0934 0 0
11:55 am 11:55 Sunny 53 11.7 33 0.8 47 47 SSW 17 28 30.18 1022 10 16.0934 0 0
12:15 pm 12:15 Sunny 54 12.4 34 0.9 46 46 SW 18 30 30.18 1022 10 16.0934 0 0
12:35 pm 12:35 Sunny 55 13 34 1.1 45 45 SSW 15 24 30.18 1022 10 16.0934 0 0
12:55 pm 12:55 Sunny 56 13.5 35 1.7 45 45 S 13 20 30.18 1022 10 16.0934 0 0
1:15 pm 13:15 Sunny 58 14.2 35 1.7 43 43 SSW 15 24 30.15 1021 10 16.0934 0 0
1:35 pm 13:35 Sunny 59 15 35 1.4 40 40 SSW 15 24 30.15 1021 10 16.0934 0 0
1:55 pm 13:55 Sunny 61 15.9 35 1.8 39 39 SSW 16 26 30.12 1020 10 16.0934 0 0
2:15 pm 14:15 Sunny 60 15.8 34 0.9 37 37 SSW 18 30 30.12 1020 10 16.0934 0 0
2:35 pm 14:35 Sunny 62 16.5 34 1.1 36 36 SSW 21 33 30.09 1019 10 16.0934 0 0
2:55 pm 14:55 Sunny 62 16.8 34 1 35 35 SSW 22 35 30.06 1018 10 16.0934 0 0
3:15 pm 15:15 Sunny 63 17.3 35 1.5 35 35 SW 15 24 30.06 1018 10 16.0934 0 0
3:35 pm 15:35 Sunny 63 17.4 35 1.5 35 35 SW 22 35 30.06 1018 10 16.0934 0 0
3:55 pm 15:55 Sunny 64 17.7 35 1.4 34 34 SSW 22 35 30.03 1017 10 16.0934 0 0
4:15 pm 16:15 Sunny 64 17.8 35 1.5 34 34 SSW 21 33 30.03 1017 10 16.0934 0 0
4:35 pm 16:35 Sunny 64 17.9 35 1.8 34 34 SSW 18 30 30.03 1017 10 16.0934 0 0
4:55 pm 16:55 Sunny 64 17.8 35 1.8 34 34 SW 18 30 30.03 1017 10 16.0934 0 0
5:15 pm 17:15 Sunny 64 17.6 35 1.8 35 35 SSW 21 33 30.03 1017 10 16.0934 0 0
5:35 pm 17:35 Sunny 63 17.3 35 1.8 35 35 SW 15 24 30.03 1017 10 16.0934 0 0
5:55 pm 17:55 Sunny 63 17 35 1.9 36 36 SW 12 19 30.03 1017 10 16.0934 0 0
6:15 pm 18:15 Sunny 61 16.3 35 1.9 38 38 SW 13 20 30.06 1018 10 16.0934 0 0
6:35 pm 18:35 Sunny 59 15.2 36 2.4 42 42 SW 10 17 30.09 1019 10 16.0934 0 0
6:55 pm 18:55 Clear 57 14.1 37 2.6 46 46 SW 9 15 30.09 1019 10 16.0934 0 0
7:15 pm 19:15 Clear 56 13.2 37 2.7 49 49 SSW 10 17 30.09 1019 10 16.0934 0 0
7:35 pm 19:35 Clear 55 12.6 37 2.9 52 52 SSW 9 15 30.09 1019 10 16.0934 0 0
7:55 pm 19:55 Clear 52 11.2 38 3.2 58 58 SW 9 15 30.09 1019 10 16.0934 0 0
8:15 pm 20:15 Clear 52 11.2 37 3 57 57 SW 8 13 30.09 1019 10 16.0934 0 0
8:35 pm 20:35 Clear 51 10.7 37 2.7 58 58 SW 7 11 30.12 1020 10 16.0934 0 0
8:55 pm 20:55 Clear 52 10.9 37 2.6 57 57 SW 8 13 30.12 1020 10 16.0934 0 0
9:15 pm 21:15 Clear 51 10.6 37 2.5 58 58 SW 8 13 30.12 1020 10 16.0934 0 0
9:35 pm 21:35 Clear 49 9.7 37 2.5 61 61 SW 6 9 30.12 1020 10 16.0934 0 0
9:55 pm 21:55 Clear 50 10.1 36 2 57 57 SW 6 9 30.12 1020 10 16.0934 0 0
10:15 pm 22:15 Clear 50 10.1 35 1.7 56 56 SW 6 9 30.12 1020 10 16.0934 0 0
10:35 pm 22:35 Clear 49 9.6 35 1.9 59 59 SW 6 9 30.12 1020 10 16.0934 0 0
10:55 pm 22:55 Clear 49 9.7 35 1.9 59 59 SW 5 7 30.12 1020 10 16.0934 0 0
11:15 pm 23:15 Clear 49 9.6 36 2.1 60 60 SW 6 9 30.12 1020 10 16.0934 0 0
11:35 pm 23:35 Clear 49 9.3 36 2 61 61 SW 7 11 30.15 1021 10 16.0934 0 0
11:55 pm 23:55 Clear 49 9.3 36 2 61 61 SW 6 9 30.15 1021 10 16.0934 0 0

Powered by AerisWeather